DW3224 Coupeville WA US current weather conditions

sailwx.info

Wind from 225 at 13 knots gusting 18

Air temperature 10.0° C
Dewpoint 8.6° C

Last reported at 2020-May-26 12:10 UTC.
Time now 2020-May-26 12:45 UTC

Location: N 48°12' W 122°44'.
View on Google Maps.

See reports from other nearby stations

  
Tides and Currents Weather Stations Pressure Air Temp Water Temp Dewpoint Dewpoint Depression Visibility Wind Speed Wind Dir Waves Ship Positions
date/time (UTC)wind fromknots sea level pressurealtimeterstation pressurevisibilityair tempwater tempwave heightnotes
2020-May-26 12:10 225 13 gusting 18 10.0
2020-May-26 12:05 223 13 gusting 18 10.0
2020-May-26 12:00 221 13 gusting 19 10.0
2020-May-26 11:55 218 13 gusting 19 10.0
2020-May-26 11:50 220 13 gusting 20 10.0
2020-May-26 11:45 221 13 gusting 20 10.6
2020-May-26 11:40 223 13 gusting 19 10.0
2020-May-26 11:35 226 13 gusting 19 10.6
2020-May-26 11:30 222 13 gusting 19 10.6
2020-May-26 11:25 219 13 gusting 19 10.6
2020-May-26 11:20 221 13 gusting 20 10.6
2020-May-26 11:15 215 11 gusting 20 10.0
2020-May-26 11:10 217 11 gusting 19 10.0
2020-May-26 11:05 217 10 gusting 19 10.0
2020-May-26 11:00 210 9 gusting 19 10.0
2020-May-26 10:55 218 10 gusting 17 10.0
2020-May-26 10:50 219 11 gusting 17 10.0
2020-May-26 10:45 214 10 gusting 16 10.0
2020-May-26 10:40 213 9 gusting 16 10.0
2020-May-26 10:35 215 10 gusting 18 10.0
2020-May-26 10:30 219 10 gusting 18 10.0
2020-May-26 10:25 216 9 gusting 15 10.0
2020-May-26 10:20 213 8 gusting 13 10.0
2020-May-26 10:15 206 6 gusting 13 10.0
2020-May-26 10:10 204 6 gusting 13 10.0
2020-May-26 10:05 211 8 gusting 13 10.0
2020-May-26 10:00 214 9 gusting 13 10.0
2020-May-26 09:55 221 11 gusting 17 10.0
2020-May-26 09:50 226 12 gusting 17 10.0
2020-May-26 09:45 225 11 gusting 16 10.0
2020-May-26 09:40 226 12 gusting 17 10.0
2020-May-26 09:35 228 13 gusting 18 10.0
2020-May-26 09:30 228 13 gusting 18 10.0
2020-May-26 09:25 228 12 gusting 18 10.0
2020-May-26 09:20 228 12 gusting 18 10.6
2020-May-26 09:15 228 12 gusting 17 10.6
2020-May-26 09:10 230 13 gusting 17 10.6
2020-May-26 09:05 229 13 gusting 21 10.6
2020-May-26 09:00 227 13 gusting 21 10.6
2020-May-26 08:55 226 13 gusting 19 10.6
2020-May-26 08:50 226 13 gusting 20 10.6
2020-May-26 08:45 224 12 gusting 20 10.6
2020-May-26 08:40 224 13 gusting 19 10.6
2020-May-26 08:35 223 12 gusting 19 10.6
2020-May-26 08:30 224 13 gusting 19 10.6
2020-May-26 08:25 223 13 gusting 20 10.6
2020-May-26 08:20 223 13 gusting 20 10.6
2020-May-26 08:15 225 13 gusting 21 10.6
2020-May-26 08:10 223 13 gusting 21 10.6
2020-May-26 08:05 224 13 gusting 20 10.6
2020-May-26 08:00 222 12 gusting 19 10.6
2020-May-26 07:55 217 10 gusting 19 10.6
2020-May-26 07:50 214 9 gusting 19 10.6
2020-May-26 07:45 214 9 gusting 16 10.6
2020-May-26 07:40 214 10 gusting 17 10.6
2020-May-26 07:35 211 8 gusting 17 10.6
2020-May-26 07:30 205 7 gusting 13 10.6
2020-May-26 07:25 204 6 gusting 13 10.6
2020-May-26 07:20 210 7 gusting 13 10.6
2020-May-26 07:15 213 9 gusting 17 10.6
2020-May-26 07:10 213 8 gusting 17 10.6
2020-May-26 07:05 211 8 gusting 16 10.6
2020-May-26 07:00 211 8 gusting 16 10.6
2020-May-26 06:55 211 7 gusting 13 10.6
2020-May-26 06:50 216 9 gusting 15 10.6
2020-May-26 06:45 226 11 gusting 15 10.6
2020-May-26 06:40 231 11 gusting 15 10.6
2020-May-26 06:35 230 11 gusting 16 10.6
2020-May-26 06:30 228 11 gusting 16 10.6
2020-May-26 06:25 225 9 gusting 13 10.6
2020-May-26 06:20 221 9 gusting 13 10.6
2020-May-26 06:15 220 10 gusting 16 10.6
2020-May-26 06:10 222 10 gusting 16 10.6
2020-May-26 06:05 222 10 gusting 15 11.1
2020-May-26 06:00 222 11 gusting 16 11.1
2020-May-26 05:55 223 11 gusting 16 11.1
2020-May-26 05:50 221 10 gusting 16 11.1
2020-May-26 05:45 223 10 gusting 13 11.1
2020-May-26 05:40 226 11 gusting 16 11.1
2020-May-26 05:35 226 10 gusting 16 11.1
2020-May-26 05:30 227 10 gusting 13 11.1
2020-May-26 05:25 233 10 gusting 13 11.1
2020-May-26 05:20 238 9 gusting 13 11.1
2020-May-26 05:15 240 10 gusting 13 11.1
2020-May-26 05:10 238 11 gusting 13 11.1
2020-May-26 05:05 237 10 gusting 13 11.1
2020-May-26 05:00 236 11 gusting 15 11.1
2020-May-26 04:55 235 11 gusting 15 11.1
2020-May-26 04:50 235 10 gusting 15 11.1
2020-May-26 04:45 234 10 gusting 13 11.1
2020-May-26 04:40 234 10 gusting 13 11.1
2020-May-26 04:35 231 10 gusting 13 11.1
2020-May-26 04:30 229 10 gusting 13 11.1
2020-May-26 04:25 229 10 gusting 13 11.1
2020-May-26 04:20 229 9 gusting 13 11.1
2020-May-24 14:00